Weather in Bayangol

Russia / Republic of Buryatia     50°42′01″N   103°28′09″E
temp.,
°C
wind,
m/s
gust,
m/s
humid.,
%
clouds,
%
prec.,
mm/h
press.,
hPa
HPBL,
m
27 november, sat
sat2723:00−9n2193100 0.0 102221
02:00−9nne2492100 0.0 102584
05:00−10nne2582100 0.0 1029388
08:00−12n2593100 1.1 1033514
11:00−12nne2583100 0.5 1035631
14:00−11nne2474100 0.9 1035716
17:00−13ne1188100 0.1 103823
20:00−16nne1197100 0.1 104125
28 november, sun
sun2823:00−17nne1192100 0.0 104330
02:00−20nnw11965 0.0 104511
05:00−22nnw11965 0.0 104611
08:00−23nw11965 0.0 104610
11:00−16sw11745 0.0 1041176
14:00−12sw24635 0.0 1035519
17:00−16wnw1189100 0.0 10369
20:00−13wsw1182100 0.0 103437
29 november, mon
mon2923:00−15w1193100 0.0 103518
02:00−18nw1196100 0.0 103713
05:00−17nw1192100 0.0 103816
08:00−18wnw119592 0.0 104012
11:00−13wsw12705 0.0 1038133
14:00−9sw13582 0.0 1034468
17:00−15w118920 0.0 103810
20:00−19nw21955 0.0 104216
30 november, tue
tue3023:00−20nw11955 0.0 104413
02:00−20nw119671 0.0 104312
05:00−20nw119736 0.0 104212
08:00−20nw1196100 0.0 104012
11:00−13wsw117446 0.0 1036117
14:00−9sw1263100 0.0 1031341
17:00−14w11927 0.0 10339
20:00−18nw21977 0.0 103614
1 december, wed
wed123:00−18wnw21978 0.0 103715
02:00−18wnw119810 0.0 103616
05:00−19wnw219811 0.0 103420
08:00−18wnw2197100 0.0 103323
11:00−11w237213 0.0 1028125
14:00−4w4125097 0.0 1022625
17:00−8wnw3966100 0.0 1025216
20:00−14n229124 0.0 103019